When you browse on this site, cookies collect data to enhance your experience and personalize the content and advertising you see.
Visit our Privacy Policy to learn more. By continuing to use the site, you agree to this use of cookies and data.
  • In Sweden
  • List of Countries
  • For 7 days
  • Water Temperature
  • Satellite Maps
  • Weather Map
  • Weather Widgets
  • user-avatar
    Login

    Hourly Weather Hmelnickoe

    Today, 20 June, Thursday

    Time Temperature Precipitation Wind Pressure Humidity
    00:00 +15°C° 0 mm 2 mps 746 mmHg 66%
    01:00 +15°C° 0 mm 2 mps 746 mmHg 68%
    02:00 +14°C° 0 mm 2 mps 747 mmHg 70%
    03:00 +14°C° 0 mm 2 mps 747 mmHg 71%
    04:00 +14°C° 0 mm 2 mps 747 mmHg 72%
    05:00 +13°C° 0 mm 3 mps 748 mmHg 75%
    06:00 +16°C° 0 mm 3 mps 748 mmHg 68%
    07:00 +18°C° 0 mm 2 mps 748 mmHg 62%
    08:00 +19°C° 0 mm 2 mps 749 mmHg 56%
    09:00 +20°C° 0 mm 2 mps 749 mmHg 51%
    10:00 +21°C° 0 mm 2 mps 749 mmHg 47%
    11:00 +23°C° 0 mm 2 mps 749 mmHg 42%
    12:00 +23°C° 0 mm 2 mps 749 mmHg 40%
    13:00 +24°C° 0 mm 2 mps 749 mmHg 37%
    14:00 +24°C° 0 mm 2 mps 748 mmHg 35%
    15:00 +24°C° 0 mm 2 mps 748 mmHg 34%
    16:00 +25°C° 0 mm 2 mps 748 mmHg 34%
    17:00 +25°C° 0 mm 1 mps 748 mmHg 33%
    18:00 +23°C° 0 mm 1 mps 749 mmHg 39%
    19:00 +22°C° 0 mm 1 mps 749 mmHg 45%
    20:00 +20°C° 0 mm 1 mps 749 mmHg 51%
    21:00 +19°C° 0 mm 2 mps 749 mmHg 52%
    22:00 +18°C° 0 mm 2 mps 749 mmHg 53%
    23:00 +18°C° 0 mm 2 mps 749 mmHg 55%

    Tomorrow, 21 June, Friday

    Time Temperature Precipitation Wind Pressure Humidity
    00:00 +17°C° 0 mm 2 mps 749 mmHg 56%
    01:00 +17°C° 0 mm 2 mps 749 mmHg 58%
    02:00 +16°C° 0 mm 2 mps 748 mmHg 60%
    03:00 +16°C° 0 mm 2 mps 748 mmHg 61%
    04:00 +16°C° 0 mm 2 mps 748 mmHg 61%
    05:00 +16°C° 0 mm 2 mps 749 mmHg 62%
    06:00 +18°C° 0 mm 2 mps 749 mmHg 57%
    07:00 +20°C° 0 mm 3 mps 748 mmHg 52%
    08:00 +21°C° 0 mm 3 mps 748 mmHg 47%
    09:00 +24°C° 0 mm 3 mps 748 mmHg 43%
    10:00 +25°C° 0 mm 3 mps 748 mmHg 39%
    11:00 +26°C° 0 mm 3 mps 747 mmHg 35%
    12:00 +26°C° 0 mm 2 mps 747 mmHg 34%
    13:00 +27°C° 0 mm 2 mps 746 mmHg 32%
    14:00 +28°C° 0 mm 2 mps 746 mmHg 30%
    15:00 +28°C° 0 mm 2 mps 746 mmHg 30%
    16:00 +28°C° 0 mm 1 mps 745 mmHg 30%
    17:00 +28°C° 0 mm 1 mps 745 mmHg 30%
    18:00 +27°C° 0 mm 1 mps 744 mmHg 34%
    19:00 +25°C° 0 mm 2 mps 744 mmHg 39%
    20:00 +24°C° 0 mm 2 mps 744 mmHg 44%
    21:00 +22°C° 0 mm 3 mps 744 mmHg 45%
    22:00 +21°C° 0 mm 3 mps 744 mmHg 46%
    23:00 +21°C° 0 mm 4 mps 743 mmHg 47%

    Day after tomorrow, 22 June, Saturday

    Time Temperature Precipitation Wind Pressure Humidity
    00:00 +20°C° 0 mm 3 mps 743 mmHg 51%
    01:00 +19°C° 0 mm 2 mps 743 mmHg 55%
    02:00 +19°C° 0 mm 2 mps 742 mmHg 59%
    03:00 +19°C° 0 mm 2 mps 742 mmHg 61%
    04:00 +20°C° 0 mm 1 mps 742 mmHg 62%
    05:00 +20°C° 0 mm 1 mps 742 mmHg 64%
    06:00 +20°C° 0 mm 2 mps 742 mmHg 61%
    07:00 +21°C° 0 mm 2 mps 742 mmHg 58%
    08:00 +24°C° 0 mm 3 mps 742 mmHg 55%
    09:00 +24°C° 0 mm 3 mps 743 mmHg 53%
    10:00 +25°C° 0 mm 4 mps 743 mmHg 50%
    11:00 +26°C° 0 mm 5 mps 743 mmHg 48%
    12:00 +26°C° 0.4 mm 6 mps 743 mmHg 51%
    13:00 +24°C° 0.4 mm 6 mps 743 mmHg 54%
    14:00 +23°C° 0.4 mm 6 mps 744 mmHg 57%
    15:00 +23°C° 0.2 mm 7 mps 744 mmHg 54%
    16:00 +22°C° 0.2 mm 8 mps 744 mmHg 52%
    17:00 +22°C° 0.2 mm 8 mps 745 mmHg 49%
    18:00 +20°C° 0 mm 8 mps 745 mmHg 52%
    19:00 +17°C° 0 mm 7 mps 746 mmHg 56%
    20:00 +16°C° 0 mm 6 mps 746 mmHg 59%
    21:00 +15°C° 0 mm 5 mps 747 mmHg 61%
    22:00 +14°C° 0 mm 4 mps 747 mmHg 64%
    23:00 +13°C° 0 mm 3 mps 748 mmHg 67%

    23 June, Sunday

    Time Temperature Precipitation Wind Pressure Humidity
    00:00 +12°C° 0 mm 3 mps 747 mmHg 69%
    01:00 +12°C° 0 mm 3 mps 747 mmHg 72%
    02:00 +11°C° 0 mm 3 mps 747 mmHg 74%
    03:00 +11°C° 0 mm 4 mps 748 mmHg 74%
    04:00 +11°C° 0 mm 4 mps 748 mmHg 74%
    05:00 +10°C° 0 mm 4 mps 748 mmHg 74%
    06:00 +10°C° 0 mm 5 mps 748 mmHg 68%
    07:00 +12°C° 0 mm 5 mps 748 mmHg 62%
    08:00 +13°C° 0 mm 6 mps 749 mmHg 56%
    09:00 +14°C° 0.1 mm 7 mps 749 mmHg 54%
    10:00 +14°C° 0.1 mm 7 mps 748 mmHg 52%
    11:00 +15°C° 0.1 mm 7 mps 748 mmHg 50%
    12:00 +15°C° 0 mm 7 mps 748 mmHg 48%
    13:00 +16°C° 0 mm 7 mps 748 mmHg 46%
    14:00 +16°C° 0 mm 7 mps 748 mmHg 43%
    15:00 +16°C° 0 mm 7 mps 748 mmHg 44%
    16:00 +16°C° 0 mm 6 mps 748 mmHg 45%
    17:00 +16°C° 0 mm 6 mps 749 mmHg 46%
    18:00 +15°C° 0 mm 5 mps 748 mmHg 51%
    19:00 +14°C° 0 mm 4 mps 748 mmHg 56%
    20:00 +14°C° 0 mm 2 mps 748 mmHg 61%
    21:00 +14°C° 0 mm 2 mps 748 mmHg 61%
    22:00 +13°C° 0 mm 2 mps 748 mmHg 62%
    23:00 +13°C° 0 mm 2 mps 748 mmHg 63%

    24 June, Monday

    Time Temperature Precipitation Wind Pressure Humidity
    00:00 +13°C° 0 mm 2 mps 747 mmHg 63%
    01:00 +12°C° 0 mm 3 mps 747 mmHg 64%
    02:00 +11°C° 0 mm 3 mps 747 mmHg 64%
    03:00 +11°C° 0.5 mm 3 mps 746 mmHg 72%
    04:00 +12°C° 0.5 mm 3 mps 746 mmHg 80%
    05:00 +12°C° 0.5 mm 3 mps 746 mmHg 88%
    06:00 +12°C° 0.2 mm 3 mps 746 mmHg 87%
    07:00 +12°C° 0.2 mm 4 mps 745 mmHg 86%
    08:00 +13°C° 0.2 mm 4 mps 745 mmHg 85%
    09:00 +13°C° 0.2 mm 4 mps 745 mmHg 86%
    10:00 +13°C° 0.2 mm 4 mps 744 mmHg 87%
    11:00 +13°C° 0.2 mm 4 mps 744 mmHg 88%
    12:00 +14°C° 0 mm 3 mps 744 mmHg 86%
    13:00 +14°C° 0 mm 3 mps 744 mmHg 85%
    14:00 +16°C° 0 mm 3 mps 744 mmHg 84%
    15:00 +17°C° 0 mm 3 mps 744 mmHg 80%
    16:00 +18°C° 0 mm 3 mps 744 mmHg 75%
    17:00 +19°C° 0 mm 3 mps 745 mmHg 71%
    18:00 +18°C° 0 mm 3 mps 745 mmHg 76%
    19:00 +17°C° 0 mm 2 mps 745 mmHg 80%
    20:00 +16°C° 0 mm 2 mps 745 mmHg 84%
    21:00 +14°C° 0 mm 3 mps 745 mmHg 86%
    22:00 +14°C° 0 mm 3 mps 745 mmHg 88%
    23:00 +13°C° 0 mm 4 mps 745 mmHg 90%

    25 June, Tuesday

    Time Temperature Precipitation Wind Pressure Humidity
    00:00 +13°C° 0 mm 4 mps 745 mmHg 91%
    01:00 +12°C° 0 mm 4 mps 745 mmHg 92%
    02:00 +12°C° 0 mm 4 mps 745 mmHg 93%
    03:00 +12°C° 0 mm 4 mps 745 mmHg 91%
    04:00 +13°C° 0 mm 4 mps 745 mmHg 89%
    05:00 +13°C° 0 mm 4 mps 745 mmHg 87%
    06:00 +15°C° 0 mm 4 mps 745 mmHg 81%
    07:00 +18°C° 0 mm 4 mps 745 mmHg 75%
    08:00 +20°C° 0 mm 4 mps 745 mmHg 70%
    09:00 +22°C° 0 mm 4 mps 744 mmHg 65%
    10:00 +25°C° 0 mm 4 mps 744 mmHg 60%
    11:00 +27°C° 0 mm 4 mps 744 mmHg 55%
    12:00 +27°C° 0.5 mm 4 mps 744 mmHg 54%
    13:00 +28°C° 0.5 mm 3 mps 744 mmHg 53%
    14:00 +28°C° 0.5 mm 3 mps 743 mmHg 52%
    15:00 +28°C° 0.5 mm 4 mps 743 mmHg 53%
    16:00 +27°C° 0.5 mm 5 mps 743 mmHg 54%
    17:00 +27°C° 0.5 mm 6 mps 744 mmHg 55%
    18:00 +26°C° 0 mm 5 mps 744 mmHg 58%
    19:00 +23°C° 0 mm 5 mps 744 mmHg 62%
    20:00 +22°C° 0 mm 5 mps 744 mmHg 65%
    21:00 +20°C° 0 mm 5 mps 745 mmHg 70%
    22:00 +19°C° 0 mm 4 mps 745 mmHg 75%
    23:00 +18°C° 0 mm 4 mps 745 mmHg 79%
    Show more